Year,Month,Day,Hour,Minute,Value (Times are PST for temperature in C)
2009,07,26,00,00,22.00
2009,07,26,00,01,21.90
2009,07,26,00,02,21.80
2009,07,26,00,03,21.80
2009,07,26,00,04,21.70
2009,07,26,00,05,21.60
2009,07,26,00,06,21.50
2009,07,26,00,07,21.50
2009,07,26,00,08,21.40
2009,07,26,00,09,21.30
2009,07,26,00,10,21.30
2009,07,26,00,11,21.20
2009,07,26,00,12,21.10
2009,07,26,00,13,21.00
2009,07,26,00,14,21.00
2009,07,26,00,15,20.80
2009,07,26,00,16,20.80
2009,07,26,00,17,20.70
2009,07,26,00,18,20.60
2009,07,26,00,19,20.50
2009,07,26,00,20,20.50
2009,07,26,00,21,20.40
2009,07,26,00,22,20.40
2009,07,26,00,23,20.40
2009,07,26,00,24,20.30
2009,07,26,00,25,20.30
2009,07,26,00,26,20.30
2009,07,26,00,27,20.30
2009,07,26,00,28,20.30
2009,07,26,00,29,20.30
2009,07,26,00,30,20.30
2009,07,26,00,31,20.30
2009,07,26,00,32,20.30
2009,07,26,00,33,20.30
2009,07,26,00,34,20.30
2009,07,26,00,35,20.20
2009,07,26,00,36,20.20
2009,07,26,00,37,20.20
2009,07,26,00,38,20.20
2009,07,26,00,39,20.20
2009,07,26,00,40,20.20
2009,07,26,00,41,20.20
2009,07,26,00,42,20.10
2009,07,26,00,43,20.10
2009,07,26,00,44,20.10
2009,07,26,00,45,20.10
2009,07,26,00,46,20.00
2009,07,26,00,47,20.00
2009,07,26,00,48,19.90
2009,07,26,00,49,19.90
2009,07,26,00,50,19.80
2009,07,26,00,51,19.80
2009,07,26,00,52,19.80
2009,07,26,00,53,19.80
2009,07,26,00,54,19.70
2009,07,26,00,55,19.70
2009,07,26,00,56,19.70
2009,07,26,00,57,19.70
2009,07,26,00,58,19.70
2009,07,26,00,59,19.70
2009,07,26,01,00,19.70
2009,07,26,01,01,19.70
2009,07,26,01,02,19.70
2009,07,26,01,03,19.70
2009,07,26,01,04,19.70
2009,07,26,01,05,19.70
2009,07,26,01,06,19.70
2009,07,26,01,07,19.70
2009,07,26,01,08,19.70
2009,07,26,01,09,19.70
2009,07,26,01,10,19.80
2009,07,26,01,11,19.70
2009,07,26,01,12,19.80
2009,07,26,01,13,19.80
2009,07,26,01,14,19.70
2009,07,26,01,15,19.70
2009,07,26,01,16,19.70
2009,07,26,01,17,19.70
2009,07,26,01,18,19.70
2009,07,26,01,19,19.70
2009,07,26,01,20,19.80
2009,07,26,01,21,19.80
2009,07,26,01,22,19.80
2009,07,26,01,23,19.80
2009,07,26,01,24,19.80
2009,07,26,01,25,19.80
2009,07,26,01,26,19.80
2009,07,26,01,27,19.80
2009,07,26,01,28,19.80
2009,07,26,01,29,19.80
2009,07,26,01,30,19.90
2009,07,26,01,31,19.90
2009,07,26,01,32,19.90
2009,07,26,01,33,19.90
2009,07,26,01,34,19.90
2009,07,26,01,35,19.90
2009,07,26,01,36,19.90
2009,07,26,01,37,19.90
2009,07,26,01,38,19.90
2009,07,26,01,39,19.90
2009,07,26,01,40,19.90
2009,07,26,01,41,19.90
2009,07,26,01,42,19.90
2009,07,26,01,43,19.90
2009,07,26,01,44,19.90
2009,07,26,01,45,19.90
2009,07,26,01,46,19.90
2009,07,26,01,47,19.90
2009,07,26,01,48,19.90
2009,07,26,01,49,19.90
2009,07,26,01,50,19.90
2009,07,26,01,51,20.00
2009,07,26,01,52,20.00
2009,07,26,01,53,20.00
2009,07,26,01,54,20.00
2009,07,26,01,55,20.00
2009,07,26,01,56,20.00
2009,07,26,01,57,20.00
2009,07,26,01,58,20.00
2009,07,26,01,59,20.00
2009,07,26,02,00,20.00
2009,07,26,02,01,20.00
2009,07,26,02,02,20.00
2009,07,26,02,03,20.00
2009,07,26,02,04,20.00
2009,07,26,02,05,20.00
2009,07,26,02,06,20.00
2009,07,26,02,07,20.00
2009,07,26,02,08,20.00
2009,07,26,02,09,20.00
2009,07,26,02,10,20.00
2009,07,26,02,11,20.00
2009,07,26,02,12,20.00
2009,07,26,02,13,20.00
2009,07,26,02,14,19.90
2009,07,26,02,15,19.90
2009,07,26,02,16,19.90
2009,07,26,02,17,19.90
2009,07,26,02,18,19.90
2009,07,26,02,19,19.90
2009,07,26,02,20,19.80
2009,07,26,02,21,19.80
2009,07,26,02,22,19.80
2009,07,26,02,23,19.80
2009,07,26,02,24,19.80
2009,07,26,02,25,19.80
2009,07,26,02,26,19.80
2009,07,26,02,27,19.80
2009,07,26,02,28,19.80
2009,07,26,02,29,19.80
2009,07,26,02,30,19.80
2009,07,26,02,31,19.80
2009,07,26,02,32,19.80
2009,07,26,02,33,19.80
2009,07,26,02,34,19.80
2009,07,26,02,35,19.80
2009,07,26,02,36,19.80
2009,07,26,02,37,19.80
2009,07,26,02,38,19.80
2009,07,26,02,39,19.80
2009,07,26,02,40,19.80
2009,07,26,02,41,19.90
2009,07,26,02,42,19.90
2009,07,26,02,43,19.90
2009,07,26,02,44,20.00
2009,07,26,02,45,20.00
2009,07,26,02,46,20.00
2009,07,26,02,47,20.10
2009,07,26,02,48,20.10
2009,07,26,02,49,20.20
2009,07,26,02,50,20.20
2009,07,26,02,51,20.20
2009,07,26,02,52,20.20
2009,07,26,02,53,20.20
2009,07,26,02,54,20.20
2009,07,26,02,55,20.20
2009,07,26,02,56,20.20
2009,07,26,02,57,20.30
2009,07,26,02,58,20.30
2009,07,26,02,59,20.30
2009,07,26,03,00,20.30
2009,07,26,03,01,20.30
2009,07,26,03,02,20.30
2009,07,26,03,03,20.30
2009,07,26,03,04,20.30
2009,07,26,03,05,20.20
2009,07,26,03,06,20.20
2009,07,26,03,07,20.20
2009,07,26,03,08,20.20
2009,07,26,03,09,20.20
2009,07,26,03,10,20.20
2009,07,26,03,11,20.10
2009,07,26,03,12,20.10
2009,07,26,03,13,20.10
2009,07,26,03,14,20.10
2009,07,26,03,15,20.10
2009,07,26,03,16,20.00
2009,07,26,03,17,20.00
2009,07,26,03,18,19.90
2009,07,26,03,19,19.90
2009,07,26,03,20,19.90
2009,07,26,03,21,19.90
2009,07,26,03,22,19.80
2009,07,26,03,23,19.80
2009,07,26,03,24,19.80
2009,07,26,03,25,19.80
2009,07,26,03,26,19.80
2009,07,26,03,27,19.70
2009,07,26,03,28,19.70
2009,07,26,03,29,19.70
2009,07,26,03,30,19.70
2009,07,26,03,31,19.70
2009,07,26,03,32,19.70
2009,07,26,03,33,19.70
2009,07,26,03,34,19.70
2009,07,26,03,35,19.70
2009,07,26,03,36,19.70
2009,07,26,03,37,19.70
2009,07,26,03,38,19.70
2009,07,26,03,39,19.60
2009,07,26,03,40,19.70
2009,07,26,03,41,19.70
2009,07,26,03,42,19.70
2009,07,26,03,43,19.70
2009,07,26,03,44,19.70
2009,07,26,03,45,19.70
2009,07,26,03,46,19.70
2009,07,26,03,47,19.80
2009,07,26,03,48,19.80
2009,07,26,03,49,19.80
2009,07,26,03,50,19.90
2009,07,26,03,51,19.90
2009,07,26,03,52,20.00
2009,07,26,03,53,20.10
2009,07,26,03,54,20.10
2009,07,26,03,55,20.20
2009,07,26,03,56,20.20
2009,07,26,03,57,20.20
2009,07,26,03,58,20.30
2009,07,26,03,59,20.30
2009,07,26,04,00,20.30
2009,07,26,04,01,20.30
2009,07,26,04,02,20.40
2009,07,26,04,03,20.40
2009,07,26,04,04,20.40
2009,07,26,04,05,20.40
2009,07,26,04,06,20.40
2009,07,26,04,07,20.40
2009,07,26,04,08,20.50
2009,07,26,04,09,20.50
2009,07,26,04,10,20.50
2009,07,26,04,11,20.50
2009,07,26,04,12,20.50
2009,07,26,04,13,20.50
2009,07,26,04,14,20.50
2009,07,26,04,15,20.50
2009,07,26,04,16,20.50
2009,07,26,04,17,20.50
2009,07,26,04,18,20.50
2009,07,26,04,19,20.50
2009,07,26,04,20,20.50
2009,07,26,04,21,20.50
2009,07,26,04,22,20.50
2009,07,26,04,23,20.50
2009,07,26,04,24,20.50
2009,07,26,04,25,20.50
2009,07,26,04,26,20.50
2009,07,26,04,27,20.50
2009,07,26,04,28,20.50
2009,07,26,04,29,20.50
2009,07,26,04,30,20.60
2009,07,26,04,31,20.60
2009,07,26,04,32,20.60
2009,07,26,04,33,20.60
2009,07,26,04,34,20.60
2009,07,26,04,35,20.60
2009,07,26,04,36,20.60
2009,07,26,04,37,20.60
2009,07,26,04,38,20.60
2009,07,26,04,39,20.60
2009,07,26,04,40,20.70
2009,07,26,04,41,20.70
2009,07,26,04,42,20.70
2009,07,26,04,43,20.80
2009,07,26,04,44,20.80
2009,07,26,04,45,20.80
2009,07,26,04,46,20.80
2009,07,26,04,47,20.80
2009,07,26,04,48,20.80
2009,07,26,04,49,20.80
2009,07,26,04,50,20.80
2009,07,26,04,51,20.80
2009,07,26,04,52,20.80
2009,07,26,04,53,20.80
2009,07,26,04,54,20.80
2009,07,26,04,55,20.80
2009,07,26,04,56,20.80
2009,07,26,04,57,20.80
2009,07,26,04,58,20.80
2009,07,26,04,59,20.80
2009,07,26,05,00,20.80
2009,07,26,05,01,20.80
2009,07,26,05,02,20.80
2009,07,26,05,03,20.80
2009,07,26,05,04,20.80
2009,07,26,05,05,20.80
2009,07,26,05,06,20.80
2009,07,26,05,07,20.80
2009,07,26,05,08,20.80
2009,07,26,05,09,20.80
2009,07,26,05,10,20.80
2009,07,26,05,11,20.80
2009,07,26,05,12,20.80
2009,07,26,05,13,20.80
2009,07,26,05,14,20.80
2009,07,26,05,15,20.70
2009,07,26,05,16,20.70
2009,07,26,05,17,20.70
2009,07,26,05,18,20.70
2009,07,26,05,19,20.70
2009,07,26,05,20,20.70
2009,07,26,05,21,20.60
2009,07,26,05,22,20.60
2009,07,26,05,23,20.60
2009,07,26,05,24,20.60
2009,07,26,05,25,20.60
2009,07,26,05,26,20.60
2009,07,26,05,27,20.60
2009,07,26,05,28,20.60
2009,07,26,05,29,20.60
2009,07,26,05,30,20.60
2009,07,26,05,31,20.60
2009,07,26,05,32,20.60
2009,07,26,05,33,20.60
2009,07,26,05,34,20.60
2009,07,26,05,35,20.60
2009,07,26,05,36,20.60
2009,07,26,05,37,20.60
2009,07,26,05,38,20.60
2009,07,26,05,39,20.60
2009,07,26,05,40,20.60
2009,07,26,05,41,20.60
2009,07,26,05,42,20.60
2009,07,26,05,43,20.50
2009,07,26,05,44,20.50
2009,07,26,05,45,20.40
2009,07,26,05,46,20.30
2009,07,26,05,47,20.30
2009,07,26,05,48,20.20
2009,07,26,05,49,20.10
2009,07,26,05,50,20.00
2009,07,26,05,51,20.00
2009,07,26,05,52,19.90
2009,07,26,05,53,19.90
2009,07,26,05,54,19.80
2009,07,26,05,55,19.80
2009,07,26,05,56,19.80
2009,07,26,05,57,19.80
2009,07,26,05,58,19.70
2009,07,26,05,59,19.70
2009,07,26,06,00,19.70
2009,07,26,06,01,19.70
2009,07,26,06,02,19.70
2009,07,26,06,03,19.70
2009,07,26,06,04,19.60
2009,07,26,06,05,19.60
2009,07,26,06,06,19.60
2009,07,26,06,07,19.60
2009,07,26,06,08,19.60
2009,07,26,06,09,19.60
2009,07,26,06,10,19.60
2009,07,26,06,11,19.50
2009,07,26,06,12,19.50
2009,07,26,06,13,19.50
2009,07,26,06,14,19.50
2009,07,26,06,15,19.50
2009,07,26,06,16,19.50
2009,07,26,06,17,19.50
2009,07,26,06,18,19.50
2009,07,26,06,19,19.50
2009,07,26,06,20,19.50
2009,07,26,06,21,19.50
2009,07,26,06,22,19.50
2009,07,26,06,23,19.50
2009,07,26,06,24,19.50
2009,07,26,06,25,19.50
2009,07,26,06,26,19.60
2009,07,26,06,27,19.60
2009,07,26,06,28,19.60
2009,07,26,06,29,19.60
2009,07,26,06,30,19.60
2009,07,26,06,31,19.60
2009,07,26,06,32,19.60
2009,07,26,06,33,19.60
2009,07,26,06,34,19.60
2009,07,26,06,35,19.60
2009,07,26,06,36,19.60
2009,07,26,06,37,19.60
2009,07,26,06,38,19.70
2009,07,26,06,39,19.70
2009,07,26,06,40,19.70
2009,07,26,06,41,19.70
2009,07,26,06,42,19.70
2009,07,26,06,43,19.70
2009,07,26,06,44,19.70
2009,07,26,06,45,19.60
2009,07,26,06,46,19.60
2009,07,26,06,47,19.60
2009,07,26,06,48,19.60
2009,07,26,06,49,19.60
2009,07,26,06,50,19.70
2009,07,26,06,51,19.70
2009,07,26,06,52,19.70
2009,07,26,06,53,19.70
2009,07,26,06,54,19.70
2009,07,26,06,55,19.70
2009,07,26,06,56,19.70
2009,07,26,06,57,19.70
2009,07,26,06,58,19.70
2009,07,26,06,59,19.70
2009,07,26,07,00,19.80
2009,07,26,07,01,19.80
2009,07,26,07,02,19.80
2009,07,26,07,03,19.80
2009,07,26,07,04,19.80
2009,07,26,07,05,19.90
2009,07,26,07,06,19.90
2009,07,26,07,07,19.90
2009,07,26,07,08,20.00
2009,07,26,07,09,20.00
2009,07,26,07,10,20.00
2009,07,26,07,11,20.10
2009,07,26,07,12,20.10
2009,07,26,07,13,20.10
2009,07,26,07,14,20.20
2009,07,26,07,15,20.20
2009,07,26,07,16,20.20
2009,07,26,07,17,20.30
2009,07,26,07,18,20.30
2009,07,26,07,19,20.30
2009,07,26,07,20,20.30
2009,07,26,07,21,20.40
2009,07,26,07,22,20.40
2009,07,26,07,23,20.40
2009,07,26,07,24,20.40
2009,07,26,07,25,20.40
2009,07,26,07,26,20.50
2009,07,26,07,27,20.50
2009,07,26,07,28,20.50
2009,07,26,07,29,20.60
2009,07,26,07,30,20.60
2009,07,26,07,31,20.60
2009,07,26,07,32,20.70
2009,07,26,07,33,20.60
2009,07,26,07,34,20.70
2009,07,26,07,35,20.70
2009,07,26,07,36,20.70
2009,07,26,07,37,20.70
2009,07,26,07,38,20.70
2009,07,26,07,39,20.70
2009,07,26,07,40,20.70
2009,07,26,07,41,20.70
2009,07,26,07,42,20.70
2009,07,26,07,43,20.70
2009,07,26,07,44,20.70
2009,07,26,07,45,20.70
2009,07,26,07,46,20.70
2009,07,26,07,47,20.70
2009,07,26,07,48,20.70
2009,07,26,07,49,20.70
2009,07,26,07,50,20.70
2009,07,26,07,51,20.70
2009,07,26,07,52,20.70
2009,07,26,07,53,20.70
2009,07,26,07,54,20.80
2009,07,26,07,55,20.80
2009,07,26,07,56,20.90
2009,07,26,07,57,20.90
2009,07,26,07,58,20.90
2009,07,26,07,59,20.90
2009,07,26,08,00,20.90
2009,07,26,08,01,20.90
2009,07,26,08,02,21.00
2009,07,26,08,03,21.00
2009,07,26,08,04,21.10
2009,07,26,08,05,21.10
2009,07,26,08,06,21.20
2009,07,26,08,07,21.20
2009,07,26,08,08,21.30
2009,07,26,08,09,21.30
2009,07,26,08,10,21.40
2009,07,26,08,11,21.40
2009,07,26,08,12,21.40
2009,07,26,08,13,21.50
2009,07,26,08,14,21.50
2009,07,26,08,15,21.50
2009,07,26,08,16,21.50
2009,07,26,08,17,21.50
2009,07,26,08,18,21.50
2009,07,26,08,19,21.60
2009,07,26,08,20,21.60
2009,07,26,08,21,21.60
2009,07,26,08,22,21.70
2009,07,26,08,23,21.70
2009,07,26,08,24,21.70
2009,07,26,08,25,21.70
2009,07,26,08,26,21.70
2009,07,26,08,27,21.80
2009,07,26,08,28,21.80
2009,07,26,08,29,21.80
2009,07,26,08,30,21.90
2009,07,26,08,31,21.90
2009,07,26,08,32,21.90
2009,07,26,08,33,21.90
2009,07,26,08,34,22.00
2009,07,26,08,35,22.00
2009,07,26,08,36,22.00
2009,07,26,08,37,22.00
2009,07,26,08,38,22.00
2009,07,26,08,39,22.00
2009,07,26,08,40,22.00
2009,07,26,08,41,22.00
2009,07,26,08,42,22.10
2009,07,26,08,43,22.10
2009,07,26,08,44,22.10
2009,07,26,08,45,22.10
2009,07,26,08,46,22.20
2009,07,26,08,47,22.20
2009,07,26,08,48,22.20
2009,07,26,08,49,22.20
2009,07,26,08,50,22.20
2009,07,26,08,51,22.20
2009,07,26,08,52,22.20
2009,07,26,08,53,22.20
2009,07,26,08,54,22.20
2009,07,26,08,55,22.20
2009,07,26,08,56,22.20
2009,07,26,08,57,22.20
2009,07,26,08,58,22.20
2009,07,26,08,59,22.30
2009,07,26,09,00,22.30
2009,07,26,09,01,22.50
2009,07,26,09,02,22.50
2009,07,26,09,03,22.60
2009,07,26,09,04,22.50
2009,07,26,09,05,22.40
2009,07,26,09,06,22.30
2009,07,26,09,07,22.30
2009,07,26,09,08,22.30
2009,07,26,09,09,22.30
2009,07,26,09,10,22.20
2009,07,26,09,11,22.10
2009,07,26,09,12,22.10
2009,07,26,09,13,22.10
2009,07,26,09,14,22.10
2009,07,26,09,15,22.00
2009,07,26,09,16,22.00
2009,07,26,09,17,22.00
2009,07,26,09,18,21.90
2009,07,26,09,19,21.90
2009,07,26,09,20,21.80
2009,07,26,09,21,21.80
2009,07,26,09,22,21.80
2009,07,26,09,23,21.80
2009,07,26,09,24,21.80
2009,07,26,09,25,21.70
2009,07,26,09,26,21.70
2009,07,26,09,27,21.80
2009,07,26,09,28,21.80
2009,07,26,09,29,21.90
2009,07,26,09,30,21.90
2009,07,26,09,31,22.00
2009,07,26,09,32,22.00
2009,07,26,09,33,22.10
2009,07,26,09,34,22.20
2009,07,26,09,35,22.20
2009,07,26,09,36,22.30
2009,07,26,09,37,22.30
2009,07,26,09,38,22.40
2009,07,26,09,39,22.40
2009,07,26,09,40,22.40
2009,07,26,09,41,22.40
2009,07,26,09,42,22.40
2009,07,26,09,43,22.30
2009,07,26,09,44,22.40
2009,07,26,09,45,22.30
2009,07,26,09,46,22.40
2009,07,26,09,47,22.30
2009,07,26,09,48,22.30
2009,07,26,09,49,22.20
2009,07,26,09,50,22.10
2009,07,26,09,51,22.10
2009,07,26,09,52,22.10
2009,07,26,09,53,22.10
2009,07,26,09,54,22.10
2009,07,26,09,55,22.10
2009,07,26,09,56,22.10
2009,07,26,09,57,22.20
2009,07,26,09,58,22.20
2009,07,26,09,59,22.30
2009,07,26,10,00,22.30
2009,07,26,10,01,22.40
2009,07,26,10,02,22.40
2009,07,26,10,03,22.50
2009,07,26,10,04,22.50
2009,07,26,10,05,22.60
2009,07,26,10,06,22.70
2009,07,26,10,07,22.70
2009,07,26,10,08,22.70
2009,07,26,10,09,22.70
2009,07,26,10,10,22.80
2009,07,26,10,11,22.80
2009,07,26,10,12,22.80
2009,07,26,10,13,22.90
2009,07,26,10,14,23.00
2009,07,26,10,15,23.00
2009,07,26,10,16,22.90
2009,07,26,10,17,22.90
2009,07,26,10,18,22.90
2009,07,26,10,19,22.90
2009,07,26,10,20,23.00
2009,07,26,10,21,23.00
2009,07,26,10,22,23.00
2009,07,26,10,23,23.00
2009,07,26,10,24,23.00
2009,07,26,10,25,22.90
2009,07,26,10,26,22.80
2009,07,26,10,27,22.80
2009,07,26,10,28,22.80
2009,07,26,10,29,22.80
2009,07,26,10,30,22.90
2009,07,26,10,31,23.10
2009,07,26,10,32,23.10
2009,07,26,10,33,23.20
2009,07,26,10,34,23.20
2009,07,26,10,35,23.20
2009,07,26,10,36,23.20
2009,07,26,10,37,23.20
2009,07,26,10,38,23.20
2009,07,26,10,39,23.10
2009,07,26,10,40,23.10
2009,07,26,10,41,23.10
2009,07,26,10,42,23.10
2009,07,26,10,43,23.10
2009,07,26,10,44,23.20
2009,07,26,10,45,23.20
2009,07,26,10,46,23.20
2009,07,26,10,47,23.20
2009,07,26,10,48,23.30
2009,07,26,10,49,23.40
2009,07,26,10,50,23.40
2009,07,26,10,51,23.30
2009,07,26,10,52,23.30
2009,07,26,10,53,23.30
2009,07,26,10,54,23.30
2009,07,26,10,55,23.40
2009,07,26,10,56,23.30
2009,07,26,10,57,23.30
2009,07,26,10,58,23.30
2009,07,26,10,59,23.30
2009,07,26,11,00,23.30
2009,07,26,11,01,23.30
2009,07,26,11,02,23.30
2009,07,26,11,03,23.40
2009,07,26,11,04,23.30
2009,07,26,11,05,23.30
2009,07,26,11,06,23.30
2009,07,26,11,07,23.40
2009,07,26,11,08,23.40
2009,07,26,11,09,23.40
2009,07,26,11,10,23.40
2009,07,26,11,11,23.50
2009,07,26,11,12,23.60
2009,07,26,11,13,23.80
2009,07,26,11,14,24.00
2009,07,26,11,15,24.20
2009,07,26,11,16,24.40
2009,07,26,11,17,24.40
2009,07,26,11,18,24.40
2009,07,26,11,19,24.40
2009,07,26,11,20,24.40
2009,07,26,11,21,24.40
2009,07,26,11,22,24.30
2009,07,26,11,23,24.30
2009,07,26,11,24,24.40
2009,07,26,11,25,24.40
2009,07,26,11,26,24.40
2009,07,26,11,27,24.30
2009,07,26,11,28,24.30
2009,07,26,11,29,24.30
2009,07,26,11,30,24.40
2009,07,26,11,31,24.40
2009,07,26,11,32,24.50
2009,07,26,11,33,24.60
2009,07,26,11,34,24.70
2009,07,26,11,35,24.80
2009,07,26,11,36,24.80
2009,07,26,11,37,24.80
2009,07,26,11,38,24.80
2009,07,26,11,39,24.80
2009,07,26,11,40,24.80
2009,07,26,11,41,24.80
2009,07,26,11,42,24.70
2009,07,26,11,43,24.70
2009,07,26,11,44,24.60
2009,07,26,11,45,24.50
2009,07,26,11,46,24.50
2009,07,26,11,47,24.60
2009,07,26,11,48,24.70
2009,07,26,11,49,24.80
2009,07,26,11,50,24.80
2009,07,26,11,51,24.90
2009,07,26,11,52,24.90
2009,07,26,11,53,25.00
2009,07,26,11,54,25.00
2009,07,26,11,55,25.10
2009,07,26,11,56,25.20
2009,07,26,11,57,25.20
2009,07,26,11,58,25.30
2009,07,26,11,59,25.40
2009,07,26,12,00,25.50
2009,07,26,12,01,25.60
2009,07,26,12,02,25.60
2009,07,26,12,03,25.70
2009,07,26,12,04,25.60
2009,07,26,12,05,25.60
2009,07,26,12,06,25.70
2009,07,26,12,07,25.80
2009,07,26,12,08,25.90
2009,07,26,12,09,25.90
2009,07,26,12,10,25.90
2009,07,26,12,11,25.90
2009,07,26,12,12,26.00
2009,07,26,12,13,26.00
2009,07,26,12,14,25.90
2009,07,26,12,15,25.70
2009,07,26,12,16,25.60
2009,07,26,12,17,25.50
2009,07,26,12,18,25.50
2009,07,26,12,19,25.40
2009,07,26,12,20,25.30
2009,07,26,12,21,25.30
2009,07,26,12,22,25.30
2009,07,26,12,23,25.30
2009,07,26,12,24,25.30
2009,07,26,12,25,25.30
2009,07,26,12,26,25.40
2009,07,26,12,27,25.40
2009,07,26,12,28,25.40
2009,07,26,12,29,25.50
2009,07,26,12,30,25.60
2009,07,26,12,31,25.60
2009,07,26,12,32,25.70
2009,07,26,12,33,25.70
2009,07,26,12,34,25.70
2009,07,26,12,35,25.60
2009,07,26,12,36,25.50
2009,07,26,12,37,25.50
2009,07,26,12,38,25.60
2009,07,26,12,39,25.60
2009,07,26,12,40,25.60
2009,07,26,12,41,25.60
2009,07,26,12,42,25.70
2009,07,26,12,43,25.80
2009,07,26,12,44,25.90
2009,07,26,12,45,26.00
2009,07,26,12,46,26.10
2009,07,26,12,47,26.20
2009,07,26,12,48,26.30
2009,07,26,12,49,26.40
2009,07,26,12,50,26.40
2009,07,26,12,51,26.40
2009,07,26,12,52,26.30
2009,07,26,12,53,26.30
2009,07,26,12,54,26.20
2009,07,26,12,55,26.10
2009,07,26,12,56,26.20
2009,07,26,12,57,26.30
2009,07,26,12,58,26.30
2009,07,26,12,59,26.40
2009,07,26,13,00,26.50
2009,07,26,13,01,26.60
2009,07,26,13,02,26.60
2009,07,26,13,03,26.70
2009,07,26,13,04,26.80
2009,07,26,13,05,26.90
2009,07,26,13,06,26.90
2009,07,26,13,07,26.80
2009,07,26,13,08,26.80
2009,07,26,13,09,26.80
2009,07,26,13,10,26.80
2009,07,26,13,11,26.80
2009,07,26,13,12,26.90
2009,07,26,13,13,26.90
2009,07,26,13,14,27.00
2009,07,26,13,15,27.00
2009,07,26,13,16,27.10
2009,07,26,13,17,27.10
2009,07,26,13,18,27.00
2009,07,26,13,19,26.80
2009,07,26,13,20,26.60
2009,07,26,13,21,26.50
2009,07,26,13,22,26.30
2009,07,26,13,23,26.30
2009,07,26,13,24,26.20
2009,07,26,13,25,26.20
2009,07,26,13,26,26.10
2009,07,26,13,27,26.00
2009,07,26,13,28,25.90
2009,07,26,13,29,25.90
2009,07,26,13,30,25.90
2009,07,26,13,31,25.90
2009,07,26,13,32,25.90
2009,07,26,13,33,25.80
2009,07,26,13,34,25.70
2009,07,26,13,35,25.80
2009,07,26,13,36,25.90
2009,07,26,13,37,25.90
2009,07,26,13,38,26.00
2009,07,26,13,39,26.10
2009,07,26,13,40,26.20
2009,07,26,13,41,26.20
2009,07,26,13,42,26.20
2009,07,26,13,43,26.10
2009,07,26,13,44,26.10
2009,07,26,13,45,26.10
2009,07,26,13,46,26.10
2009,07,26,13,47,26.00
2009,07,26,13,48,25.90
2009,07,26,13,49,25.90
2009,07,26,13,50,25.90
2009,07,26,13,51,25.90
2009,07,26,13,52,25.90
2009,07,26,13,53,25.90
2009,07,26,13,54,26.00
2009,07,26,13,55,26.00
2009,07,26,13,56,26.00
2009,07,26,13,57,26.10
2009,07,26,13,58,26.20
2009,07,26,13,59,26.30
2009,07,26,14,00,26.40
2009,07,26,14,01,26.30
2009,07,26,14,02,26.30
2009,07,26,14,03,26.30
2009,07,26,14,04,26.30
2009,07,26,14,05,26.30
2009,07,26,14,06,26.40
2009,07,26,14,07,26.60
2009,07,26,14,08,26.70
2009,07,26,14,09,26.60
2009,07,26,14,10,26.60
2009,07,26,14,11,26.50
2009,07,26,14,12,26.50
2009,07,26,14,13,26.60
2009,07,26,14,14,26.60
2009,07,26,14,15,26.70
2009,07,26,14,16,26.70
2009,07,26,14,17,26.80
2009,07,26,14,18,26.80
2009,07,26,14,19,26.90
2009,07,26,14,20,27.00
2009,07,26,14,21,27.10
2009,07,26,14,22,27.20
2009,07,26,14,23,27.30
2009,07,26,14,24,27.30
2009,07,26,14,25,27.40
2009,07,26,14,26,27.40
2009,07,26,14,27,27.40
2009,07,26,14,28,27.40
2009,07,26,14,29,27.50
2009,07,26,14,30,27.50
2009,07,26,14,31,27.60
2009,07,26,14,32,27.70
2009,07,26,14,33,27.70
2009,07,26,14,34,27.70
2009,07,26,14,35,27.70
2009,07,26,14,36,27.80
2009,07,26,14,37,27.90
2009,07,26,14,38,27.90
2009,07,26,14,39,27.90
2009,07,26,14,40,27.90
2009,07,26,14,41,27.90
2009,07,26,14,42,27.90
2009,07,26,14,43,27.90
2009,07,26,14,44,27.80
2009,07,26,14,45,27.70
2009,07,26,14,46,27.80
2009,07,26,14,47,27.80
2009,07,26,14,48,27.80
2009,07,26,14,49,27.90
2009,07,26,14,50,28.00
2009,07,26,14,51,28.10
2009,07,26,14,52,28.20
2009,07,26,14,53,28.20
2009,07,26,14,54,28.20
2009,07,26,14,55,28.30
2009,07,26,14,56,28.40
2009,07,26,14,57,28.50
2009,07,26,14,58,28.50
2009,07,26,14,59,28.50
2009,07,26,15,00,28.50
2009,07,26,15,01,28.40
2009,07,26,15,02,28.30
2009,07,26,15,03,28.30
2009,07,26,15,04,28.30
2009,07,26,15,05,28.20
2009,07,26,15,06,28.10
2009,07,26,15,07,28.10
2009,07,26,15,08,28.10
2009,07,26,15,09,28.00
2009,07,26,15,10,28.00
2009,07,26,15,11,28.00
2009,07,26,15,12,28.10
2009,07,26,15,13,28.20
2009,07,26,15,14,28.30
2009,07,26,15,15,28.30
2009,07,26,15,16,28.40
2009,07,26,15,17,28.40
2009,07,26,15,18,28.50
2009,07,26,15,19,28.70
2009,07,26,15,20,28.90
2009,07,26,15,21,29.00
2009,07,26,15,22,29.10
2009,07,26,15,23,29.20
2009,07,26,15,24,29.20
2009,07,26,15,25,29.20
2009,07,26,15,26,29.30
2009,07,26,15,27,29.30
2009,07,26,15,28,29.40
2009,07,26,15,29,29.40
2009,07,26,15,30,29.30
2009,07,26,15,31,29.20
2009,07,26,15,32,28.90
2009,07,26,15,33,28.60
2009,07,26,15,34,28.40
2009,07,26,15,35,28.30
2009,07,26,15,36,28.30
2009,07,26,15,37,28.40
2009,07,26,15,38,28.50
2009,07,26,15,39,28.50
2009,07,26,15,40,28.40
2009,07,26,15,41,28.40
2009,07,26,15,42,28.30
2009,07,26,15,43,28.30
2009,07,26,15,44,28.30
2009,07,26,15,45,28.40
2009,07,26,15,46,28.50
2009,07,26,15,47,28.50
2009,07,26,15,48,28.60
2009,07,26,15,49,28.60
2009,07,26,15,50,28.50
2009,07,26,15,51,28.60
2009,07,26,15,52,28.60
2009,07,26,15,53,28.60
2009,07,26,15,54,28.60
2009,07,26,15,55,28.60
2009,07,26,15,56,28.50
2009,07,26,15,57,28.50
2009,07,26,15,58,28.50
2009,07,26,15,59,28.40
2009,07,26,16,00,28.40
2009,07,26,16,01,28.30
2009,07,26,16,02,28.20
2009,07,26,16,03,28.10
2009,07,26,16,04,28.00
2009,07,26,16,05,28.00
2009,07,26,16,06,28.10
2009,07,26,16,07,28.20
2009,07,26,16,08,28.20
2009,07,26,16,09,28.20
2009,07,26,16,10,28.20
2009,07,26,16,11,28.10
2009,07,26,16,12,28.10
2009,07,26,16,13,28.10
2009,07,26,16,14,28.10
2009,07,26,16,15,28.20
2009,07,26,16,16,28.30
2009,07,26,16,17,28.30
2009,07,26,16,18,28.30
2009,07,26,16,19,28.30
2009,07,26,16,20,28.30
2009,07,26,16,21,28.30
2009,07,26,16,22,28.30
2009,07,26,16,23,28.30
2009,07,26,16,24,28.30
2009,07,26,16,25,28.30
2009,07,26,16,26,28.40
2009,07,26,16,27,28.50
2009,07,26,16,28,28.60
2009,07,26,16,29,28.70
2009,07,26,16,30,28.70
2009,07,26,16,31,28.70
2009,07,26,16,32,28.70
2009,07,26,16,33,28.70
2009,07,26,16,34,28.70
2009,07,26,16,35,28.60
2009,07,26,16,36,28.60
2009,07,26,16,37,28.60
2009,07,26,16,38,28.60
2009,07,26,16,39,28.70
2009,07,26,16,40,28.70
2009,07,26,16,41,28.80
2009,07,26,16,42,28.90
2009,07,26,16,43,29.00
2009,07,26,16,44,29.00
2009,07,26,16,45,29.10
2009,07,26,16,46,29.10
2009,07,26,16,47,29.10
2009,07,26,16,48,29.10
2009,07,26,16,49,29.20
2009,07,26,16,50,29.30
2009,07,26,16,51,29.30
2009,07,26,16,52,29.20
2009,07,26,16,53,29.20
2009,07,26,16,54,29.10
2009,07,26,16,55,29.10
2009,07,26,16,56,29.10
2009,07,26,16,57,29.10
2009,07,26,16,58,29.10
2009,07,26,16,59,29.20
2009,07,26,17,00,29.20
2009,07,26,17,01,29.30
2009,07,26,17,02,29.30
2009,07,26,17,03,29.30
2009,07,26,17,04,29.30
2009,07,26,17,05,29.30
2009,07,26,17,06,29.20
2009,07,26,17,07,29.20
2009,07,26,17,08,29.10
2009,07,26,17,09,29.10
2009,07,26,17,10,29.00
2009,07,26,17,11,28.90
2009,07,26,17,12,28.80
2009,07,26,17,13,28.80
2009,07,26,17,14,28.80
2009,07,26,17,15,28.80
2009,07,26,17,16,28.70
2009,07,26,17,17,28.80
2009,07,26,17,18,28.80
2009,07,26,17,19,28.80